#timestamp,LO_Frequency,Hit,StdDev 
1588543215.4,286047001.4,N
1588543235.3,286047002.5,N
1588543255.1,286047003.5,N
1588543275.8,286047001.8,N
1588543295.7,286047003.8,N
1588543315.5,286047004.0,Y
1588543335.4,286046998.5,P
1588543355.2,286047001.9,N
1588543375.0,286047002.5,N
1588543375.9,286047002.5,N
1588543395.8,286047000.1,N
1588543415.6,286047001.4,N
1588543435.5,286047003.2,N
1588543455.3,286047001.8,N
1588543475.1,286047003.8,N
1588543495.9,286047002.6,N
1588543515.7,286047002.3,N
1588543535.5,286046999.7,N
1588543555.4,286047000.3,N
1588543575.2,286047002.2,N
1588543595.1,286047002.0,N
1588543596.0,286047002.0,N
1588543615.8,286047001.7,N
1588543635.6,286047004.0,Y
1588543655.5,286047002.2,P
1588543675.3,286047002.4,P
1588543695.2,286046999.8,N
1588543715.9,286047000.4,N
1588543735.7,286047002.0,N
1588543755.6,286047004.4,Y
1588543775.4,286046999.5,P
1588543795.3,286047000.8,N
1588543815.1,286047001.0,N
1588543816.0,286047001.0,N
1588543835.8,286047000.7,N
1588543855.7,286046999.8,N
1588543875.5,286047002.8,Y
1588543895.3,286047002.4,P
1588543915.2,286047000.8,N
1588543935.0,286046996.5,P
1588543935.9,286046996.5,N
1588543955.8,286046999.1,N
1588543975.6,286046997.6,N
1588543995.5,286046995.0,N
1588544015.3,286046996.6,N
1588544035.1,286046998.8,N
1588544055.9,286046999.3,N
1588544075.7,286046998.4,N
1588544095.5,286046996.8,N
1588544115.4,286046997.0,N
1588544135.2,286046998.8,N
1588544155.1,286046999.6,N
1588544156.0,286046999.6,N
1588544175.8,286046997.0,N
1588544195.6,286046999.5,N
1588544215.5,286046997.2,N
1588544235.3,286046997.0,N
1588544255.2,286046996.8,N
1588544275.9,286046998.0,N
1588544295.7,286046997.2,N
1588544315.6,286046999.6,N
1588544335.4,286046996.8,N
1588544355.2,286046999.6,N
1588544375.1,286046996.7,N
1588544376.0,286046996.7,N
1588544395.8,286046999.5,N
1588544415.7,286046996.5,N
1588544435.5,286046998.5,N
1588544455.3,286046996.6,N
1588544475.2,286046997.4,N
1588544495.0,286046995.2,Y
1588544495.9,286046995.2,P
1588544515.8,286047000.8,N
1588544535.6,286047000.6,N
1588544555.4,286047002.2,N
1588544575.3,286047004.0,N
1588544595.1,286047002.5,N
1588544615.9,286046999.7,N
1588544635.7,286047000.3,N
1588544655.5,286046998.1,N
1588544675.4,286047001.2,N
1588544695.2,286047000.0,N
1588544715.0,286046999.1,N
1588544715.9,286046999.1,N
1588544735.8,286046999.4,N
1588544755.6,286047000.0,N
1588544775.5,286046998.3,N
1588544795.3,286046998.2,N
1588544815.1,286046998.1,N
1588544835.9,286047000.6,N
1588544855.7,286047001.0,N
1588544875.6,286046998.2,N
1588544895.4,286047000.2,N
1588544915.2,286046999.7,N
1588544935.1,286046999.9,N
1588544936.0,286046999.9,N
1588544955.8,286047001.2,N
1588544975.6,286047000.7,N
1588544995.5,286047001.1,N
1588545015.3,286047000.9,N
1588545035.2,286047002.0,N
1588545055.9,286047004.3,N
1588545075.7,286047000.3,N
1588545095.6,286046999.8,N
1588545115.4,286047002.6,N
1588545135.3,286047000.5,N
1588545155.1,286047000.1,N
1588545156.0,286047000.1,N
1588545175.8,286047002.0,N
1588545195.7,286047001.7,N
1588545215.5,286047003.8,N
1588545235.4,286047001.6,N
1588545255.2,286047003.5,N
1588545275.0,286047001.4,N
1588545275.9,286047001.4,N
1588545295.8,286047001.9,N
1588545315.6,286046999.7,N
1588545335.5,286046999.8,N
1588545355.3,286047002.5,N
1588545375.1,286047003.6,N
1588545395.9,286046999.9,N
1588545415.7,286046999.9,N
1588545435.6,286047002.3,N
1588545455.4,286047001.3,N
1588545475.2,286047004.4,Y
1588545495.1,286047000.3,P
1588545496.0,286047000.3,N
1588545515.8,286047002.7,P
1588545535.6,286046999.7,N
1588545555.5,286047001.1,N
1588545575.3,286047002.3,N
1588545595.2,286047000.0,N
1588545615.9,286047000.3,N
1588545635.7,286047001.2,N
1588545655.6,286047001.7,N
1588545675.4,286047004.2,Y
1588545695.3,286047002.2,P
1588545715.1,286047002.8,P
1588545716.0,286047002.8,P
1588545735.8,286047001.9,N
1588545755.7,286047000.3,N
1588545775.5,286046998.8,N
1588545795.4,286046998.9,N
1588545815.2,286047000.2,N
1588545835.0,286047001.0,N
1588545835.9,286047001.0,N
1588545855.8,286046999.1,N
1588545875.6,286046999.2,N
1588545895.4,286047000.6,N
1588545915.3,286047001.2,N
1588545935.1,286047000.8,N
1588545955.9,286046998.2,N
1588545975.7,286047000.0,N
1588545995.5,286047000.3,N
1588546015.4,286046998.1,N
1588546035.2,286046998.3,N
1588546055.1,286046999.4,N
1588546056.0,286046999.4,N
1588546075.8,286046999.5,N
1588546095.6,286046998.1,N
1588546115.5,286047002.4,N
1588546135.3,286047002.3,N
1588546155.2,286047000.4,N
1588546175.9,286046998.6,N
1588546195.7,286046998.5,N
1588546215.6,286046996.9,N
1588546235.4,286046996.5,N
1588546255.2,286046999.2,N
1588546275.1,286046997.3,N
1588546276.0,286046997.3,N
1588546295.8,286046995.4,Y
1588546315.7,286046999.0,P
1588546335.5,286046998.4,P
1588546355.3,286046998.9,N
1588546375.2,286046998.2,Y
1588546395.0,286047000.3,P
1588546395.9,286047000.3,N
1588546415.8,286047001.6,N
1588546435.6,286047002.2,N
1588546455.4,286047002.0,N
1588546475.3,286047002.1,N
1588546495.1,286047002.3,N
1588546515.9,286047001.6,N
1588546535.7,286047003.7,Y
1588546555.5,286047000.5,P
1588546575.4,286046999.5,N
1588546595.2,286046999.0,N
1588546615.1,286047000.2,N
1588546616.0,286047000.2,N
1588546635.8,286046999.3,N
1588546655.6,286047000.9,N
1588546675.5,286046996.6,Y
1588546695.3,286046997.4,P
1588546715.1,286046996.9,N
1588546735.9,286046997.1,N
1588546755.7,286046996.7,N
1588546775.6,286046998.7,N
1588546795.4,286047002.4,N
